Regional Weather Roundup
Issued by NWS Charleston, WV

Home | Current Version | Previous Version | Text Only | Print | Product List | Glossary On
Versions: 1 2 3 4 5 6 7 8 9 10 11 12 13 14 15 16 17 18 19 20 21 22 23 24 25 26 27 28 29 30 31 32 33 34 35 36 37 38 39 40 41 42 43 44 45 46 47 48 49 50
849
ASUS41 KRLX 222210
RWRRLX
West Virginia Regional Weather Roundup
National Weather Service Charleston WV
600 PM EDT WED MAR 22 2017

Note: "fair" indicates few or no clouds below 12,000 feet with no
significant weather and/or obstructions to visibility.

WVZ003-222300-
Northern Panhandle of West Virginia

CITY           SKY/WX    TMP DP  RH WIND       PRES   REMARKS
WHEELING       SUNNY     37   6  27 N14       30.42R
$$

WVZ009-222300-
Northwest West Virginia

CITY           SKY/WX    TMP DP  RH WIND       PRES   REMARKS
PARKERSBURG    SUNNY     44  12  27 VRB3      30.45S
$$

WVZ006-222300-
Western West Virginia

CITY           SKY/WX    TMP DP  RH WIND       PRES   REMARKS
HUNTINGTON     SUNNY     45  15  30 N9        30.39S
$$

WVZ015-222300-
West Central West Virginia

CITY           SKY/WX    TMP DP  RH WIND       PRES   REMARKS
CHARLESTON     SUNNY     45  14  28 NE8       30.38R
$$

WVZ022-031-222300-
North Central West Virginia

CITY           SKY/WX    TMP DP  RH WIND       PRES   REMARKS
CLARKSBURG     SUNNY     41   5  22 NW7       30.39R
MORGANTOWN     SUNNY     40   6  24 N7        30.40R
$$

WVZ025-035-042-045-222300-
Southern West Virginia

CITY           SKY/WX    TMP DP  RH WIND       PRES   REMARKS
BECKLEY        SUNNY     42  12  29 N14       30.29S
LOGAN            N/A     45  12  26 N6        30.33S
BLUEFIELD      SUNNY     43  15  32 N9        30.27R
LEWISBURG      SUNNY     42  13  30 N12G17    30.28S
$$

WVZ047-222300-
Northern Mountains of West Virginia

CITY           SKY/WX    TMP DP  RH WIND       PRES   REMARKS
ELKINS         SUNNY     39   9  29 NW8       30.35R
$$

WVZ052-222300-
Eastern Panhandle of West Virginia

CITY           SKY/WX    TMP DP  RH WIND       PRES   REMARKS
MARTINSBURG    SUNNY     43   3  19 NW13      30.33R
PETERSBURG     SUNNY     44   7  22 NW7       30.36R
$$




USA.gov is the U.S. government's official web portal to all federal, state and local government web resources and services.